Delhi Cantonment, India

7:06 PM IST on February 24, 2017 (GMT +0530)
Indira Gandhi International

Weather History for VIDP - October, 2012

Change the Weather History Date:

Thursday, October 4, 2012

  Actual Average Record
Temperature  
Mean Temperature 83 °F -  
Max Temperature 95 °F 87 °F 104 °F (2007)
Min Temperature 71 °F 66 °F 69 °F (2003)
Cooling Degree Days 18    
Growing Degree Days 33 (Base 50)    
Moisture  
Dew Point 61 °F    
Average Humidity 50    
Maximum Humidity 78    
Minimum Humidity 26    
Precipitation  
Precipitation 0.00 in - - ()
Sea Level Pressure  
Sea Level Pressure 29.68 in    
Wind  
Wind Speed 3 mph ()    
Max Wind Speed 14 mph    
Max Gust Speed -    
Visibility 1.7 miles    
Events      
Averages and records for this station are not official NWS values.
T = Trace of Precipitation, MM = Missing Value Source: Averaged Metar Reports

Daily Weather History Graph

Daily Weather History Graph

Search for Another Location

Airport or City:

Trip Planner

Search our weather history database for the weather conditions in past years. The results will help you decide how hot, cold, wet, or windy it might be!

Date:

Astronomy

Oct. 04, 2012 Rise Set
Actual Time 6:16 AM IST 6:03 PM IST
Civil Twilight 5:52 AM IST 6:27 PM IST
Nautical Twilight 5:25 AM IST 6:54 PM IST
Astronomical Twilight 4:57 AM IST 7:22 PM IST
Moon 8:40 PM IST (10/4) 9:47 AM IST (10/4)
Length of Visible Light 12h 34m
Length of Day
11h 47m
Waning Gibbous, 85% of the Moon is Illuminated
Oct 4
Waning Gibbous
Oct 8
Last Quarter
Oct 15
New
Oct 22
First Quarter
Oct 30
Full

Hourly Weather History & Observations

Time (IST) Temp. Heat Index Dew Point Humidity Pressure Visibility Wind Dir Wind Speed Gust Speed Precip Events Conditions
12:00 AM 78.8 °F - 66.2 °F 65% 29.71 in 1.2 mi Calm Calm - N/A   Haze
12:30 AM 78.8 °F - 66.2 °F 65% 29.68 in 1.2 mi Calm Calm - N/A   Haze
1:00 AM 77.0 °F - 66.2 °F 69% 29.68 in 1.2 mi Calm Calm - N/A   Haze
1:30 AM 77.0 °F - 68.0 °F 74% 29.68 in 1.2 mi Calm Calm - N/A   Haze
2:00 AM 75.2 °F - 66.2 °F 73% 29.68 in 1.1 mi Calm Calm - N/A   Haze
2:30 AM 75.2 °F - 68.0 °F 78% 29.65 in 1.1 mi Calm Calm - N/A   Mist
3:00 AM 73.4 °F - 66.2 °F 78% 29.65 in 1.1 mi SW 4.6 mph - N/A   Mist
3:30 AM 71.6 °F - 64.4 °F 78% 29.65 in 1.1 mi SW 4.6 mph - N/A   Mist
4:00 AM 71.6 °F - 64.4 °F 78% 29.65 in 1.1 mi WNW 4.6 mph - N/A   Mist
4:30 AM 71.6 °F - 62.6 °F 73% 29.65 in 1.1 mi WSW 3.5 mph - N/A   Mist
5:00 AM 71.6 °F - 62.6 °F 73% 29.65 in 1.2 mi WSW 3.5 mph - N/A   Mist
5:30 AM 71.6 °F - 62.6 °F 73% 29.68 in 1.4 mi WSW 3.5 mph - N/A   Mist
6:00 AM 71.6 °F - 62.6 °F 73% 29.68 in 1.4 mi WSW 3.5 mph - N/A   Mist
6:30 AM 71.6 °F - 62.6 °F 73% 29.68 in 1.4 mi Calm Calm - N/A   Mist
7:00 AM 73.4 °F - 60.8 °F 65% 29.68 in 1.4 mi Calm Calm - N/A   Mist
8:00 AM 75.2 °F - 59.0 °F 57% 29.71 in 1.6 mi WSW 3.5 mph - N/A   Haze
8:30 AM 77.0 °F - 57.2 °F 50% 29.71 in 1.6 mi West 4.6 mph - N/A   Haze
9:00 AM 78.8 °F - 57.2 °F 47% 29.71 in 1.7 mi West 4.6 mph - N/A   Haze
9:30 AM 80.6 °F 81.1 °F 59.0 °F 48% 29.71 in 1.7 mi West 4.6 mph - N/A   Haze
11:00 AM 89.6 °F 88.9 °F 59.0 °F 36% 29.71 in 2.2 mi West 5.8 mph - N/A   Haze
11:30 AM 91.4 °F 90.7 °F 59.0 °F 34% 29.71 in 2.2 mi WNW 5.8 mph - N/A   Haze
12:00 PM 93.2 °F 92.6 °F 59.0 °F 32% 29.71 in 2.2 mi West 4.6 mph - N/A   Haze
12:30 PM 93.2 °F 92.6 °F 59.0 °F 32% 29.68 in 2.2 mi West 5.8 mph - N/A   Haze
1:00 PM 95.0 °F 94.4 °F 59.0 °F 30% 29.68 in 2.2 mi WNW 8.1 mph - N/A   Haze
1:30 PM 95.0 °F 94.4 °F 59.0 °F 30% 29.68 in 2.2 mi WNW 9.2 mph - N/A   Haze
2:00 PM 95.0 °F 93.0 °F 55.4 °F 26% 29.65 in 2.2 mi NW 11.5 mph - N/A   Haze
2:30 PM 93.2 °F 90.8 °F 53.6 °F 26% 29.65 in 2.5 mi West 13.8 mph - N/A   Haze
3:30 PM 93.2 °F 90.8 °F 53.6 °F 26% 29.65 in 2.5 mi West 13.8 mph - N/A   Haze
4:00 PM 93.2 °F 91.3 °F 55.4 °F 28% 29.65 in 2.5 mi WNW 11.5 mph - N/A   Haze
4:30 PM 93.2 °F 91.3 °F 55.4 °F 28% 29.62 in 2.2 mi NW 11.5 mph - N/A   Haze
5:00 PM 93.2 °F 91.3 °F 55.4 °F 28% 29.65 in 2.2 mi NW 10.4 mph - N/A   Haze
5:30 PM 93.2 °F 91.3 °F 55.4 °F 28% 29.65 in 2.2 mi NW 9.2 mph - N/A   Haze
6:00 PM 91.4 °F 89.9 °F 57.2 °F 31% 29.65 in 2.2 mi NW 8.1 mph - N/A   Haze
6:30 PM 89.6 °F 88.1 °F 57.2 °F 33% 29.65 in - West 5.8 mph - N/A   Haze
7:00 PM 87.8 °F 86.5 °F 57.2 °F 35% 29.65 in - West 5.8 mph - N/A   Haze
7:30 PM 86.0 °F 85.4 °F 59.0 °F 40% 29.65 in - Calm Calm - N/A   Haze
8:00 PM 86.0 °F 86.1 °F 60.8 °F 43% 29.68 in - West 3.5 mph - N/A   Haze
8:30 PM 84.2 °F 84.4 °F 60.8 °F 45% 29.68 in - WSW 3.5 mph - N/A   Haze
9:30 PM 82.4 °F 82.9 °F 60.8 °F 48% 29.68 in 1.9 mi Calm Calm - N/A   Haze
10:00 PM 80.6 °F 81.5 °F 60.8 °F 51% 29.71 in 1.6 mi Calm Calm - N/A   Haze
10:30 PM 80.6 °F 81.8 °F 62.6 °F 54% 29.71 in 1.6 mi Calm Calm - N/A   Haze
11:00 PM 78.8 °F - 62.6 °F 57% 29.71 in 1.6 mi Calm Calm - N/A   Haze
11:30 PM 78.8 °F - 62.6 °F 57% 29.71 in 1.6 mi Calm Calm - N/A   Haze